Location: Unspecified
(0.0000°N, 0.0000°E)
Time: 08:51:37
(UTC+00:00)

deb r/b Ablestar - Pass Details

Date: 24 December 2025
Orbit: 674 x 763 km, 66.8° (Epoch: 18 January)

Event Time Altitude Azimuth Distance (km) Brightness Sun altitude
Rises 18:54:43 0° 178° (S) 3,164 ? -12.6°
Reaches altitude 10° 18:57:26 10° 165° (SSE) 2,254 ? -13.2°
Maximum altitude 19:01:40 26° 110° (ESE) 1,462 ? -14.2°
Enters shadow 19:03:29 21° 79° (ENE) 1,642 ? -14.6°
